Weather History for Gulkana, AK

Change the Weather History Date:

Friday, August 2, 2013

  Actual Average Record
Temperature  
Mean Temperature 60 °F -  
Max Temperature 79 °F 66 °F 82 °F (1978)
Min Temperature 41 °F 46 °F 34 °F (2003)
Degree Days  
Heating Degree Days 5    
Growing Degree Days 10 (Base 50)    
Moisture  
Dew Point 40 °F    
Average Humidity 48    
Maximum Humidity 92    
Minimum Humidity 11    
Precipitation  
Precipitation 0.00 in - - ()
Sea Level Pressure  
Sea Level Pressure 29.91 in    
Wind  
Wind Speed 9 mph (South)    
Max Wind Speed 22 mph    
Max Gust Speed 30 mph    
Visibility 10 miles    
Events      
Averages and records for this station are not official NWS values.
T = Trace of Precipitation, MM = Missing Value Source: NWS Daily Summary

Daily Weather History Graph

Daily Weather History Graph

Search for Another Location

Airport:

Trip Planner

Search our weather history database for the weather conditions in past years. The results will help you decide how hot, cold, wet, or windy it might be!

Date:

Astronomy

Aug. 02, 2013 Rise Set
Actual Time 5:10 AM AKDT 10:23 PM AKDT
Civil Twilight 4:00 AM AKDT 11:32 PM AKDT
Nautical Twilight 2:20 AM AKDT 1:15 AM AKDT
Astronomical Twilight Sun does not rise Sun does not rise
Moon 1:23 AM AKDT (8/2) 7:42 PM AKDT (8/2)
Length of Visible Light 19h 31m
Length of Day
17h 12m
Waning Crescent, 15% of the Moon is Illuminated
Aug 2
Waning Crescent
Aug 6
New
Aug 14
First Quarter
Aug 20
Full
Aug 28
Last Quarter

Hourly Weather History & Observations

Time (AKDT) Temp. Dew Point Humidity Pressure Visibility Wind Dir Wind Speed Gust Speed Precip Events Conditions
12:53 AM 57.9 °F 48.0 °F 70% 29.93 in 10.0 mi South 9.2 mph - N/A   Clear
1:53 AM 57.0 °F 46.9 °F 69% 29.93 in 10.0 mi South 10.4 mph - N/A   Clear
2:53 AM 53.1 °F 46.0 °F 77% 29.94 in 10.0 mi South 5.8 mph - N/A   Clear
3:53 AM 51.1 °F 46.9 °F 86% 29.95 in 10.0 mi SSW 4.6 mph - N/A   Clear
4:53 AM 42.1 °F 39.9 °F 92% 29.97 in 10.0 mi Calm Calm - N/A   Clear
5:53 AM 48.9 °F 46.0 °F 90% 29.96 in 10.0 mi SSW 5.8 mph - N/A   Clear
6:02 AM 48.9 °F 46.0 °F 90% 29.98 in 10.0 mi South 4.6 mph - N/A   Partly Cloudy
6:53 AM 53.1 °F 48.0 °F 83% 29.96 in 10.0 mi South 4.6 mph - N/A   Scattered Clouds
7:53 AM 54.0 °F 48.0 °F 80% 29.96 in 10.0 mi SSE 3.5 mph - N/A   Scattered Clouds
8:53 AM 59.0 °F 48.0 °F 67% 29.96 in 10.0 mi South 11.5 mph - N/A   Scattered Clouds
9:53 AM 63.0 °F 48.0 °F 58% 29.96 in 10.0 mi SE 6.9 mph - N/A   Scattered Clouds
10:53 AM 66.0 °F 48.0 °F 52% 29.95 in 10.0 mi Variable 4.6 mph - N/A   Scattered Clouds
11:53 AM 70.0 °F 45.0 °F 41% 29.93 in 8.0 mi SE 10.4 mph - N/A   Clear
12:53 PM 73.0 °F 41.0 °F 31% 29.92 in 10.0 mi SSE 10.4 mph - N/A   Clear
1:53 PM 77.0 °F 32.0 °F 19% 29.90 in 10.0 mi SSE 16.1 mph 21.9 mph N/A   Clear
2:53 PM 78.1 °F 30.9 °F 18% 29.89 in 10.0 mi SSE 13.8 mph 23.0 mph N/A   Clear
3:53 PM 79.0 °F 34.0 °F 20% 29.88 in 10.0 mi South 15.0 mph 20.7 mph N/A   Clear
4:53 PM 79.0 °F 28.0 °F 15% 29.88 in 10.0 mi SSE 21.9 mph 29.9 mph N/A   Clear
5:53 PM 77.0 °F 28.9 °F 17% 29.86 in 10.0 mi South 16.1 mph 26.5 mph N/A   Clear
6:53 PM 75.9 °F 28.9 °F 18% 29.85 in 10.0 mi South 12.7 mph 25.3 mph N/A   Clear
7:53 PM 73.9 °F 33.1 °F 22% 29.85 in 10.0 mi South 12.7 mph - N/A   Clear
8:53 PM 70.0 °F 32.0 °F 25% 29.85 in 10.0 mi South 9.2 mph - N/A   Clear
9:53 PM 68.0 °F 30.9 °F 25% 29.86 in 10.0 mi South 9.2 mph - N/A   Clear
10:53 PM 63.0 °F 33.1 °F 33% 29.86 in 10.0 mi South 9.2 mph - N/A   Clear
11:53 PM 59.0 °F 32.0 °F 36% 29.87 in 10.0 mi ESE 9.2 mph - N/A   Clear